C/2017 C2 ( PanSTARRS )

Japanese version
Home page
Updated on October 8, 2017

---------------------------------------------------------------------

* Profile

Discovery Date February 4, 2017
Magnitude 19.6 mag
Discoverer Pan-STARRS 1 telescope (Haleakala)

* Pictures

* Orbital Elements

Epoch 2017 Jan. 7.0 TT = JDT 2457760.5
T 2017 Jan. 21.61320 TT                                 MPCW
q   2.4310120            (2000.0)            P               Q
z  +0.0101505      Peri.  138.77446     -0.03647724     +0.56509270
 +/-0.0000140      Node   249.81974     +0.51729334     +0.71634986
e   0.9753239      Incl.  118.58274     +0.85503041     -0.40928368
From 83 observations 2017 Feb. 4-Sept. 17, mean residual 0".5.

* Magnitudes Graph

        m1 = 13.0 + 5 log d + 10.0 log r

---------------------------------------------------------------------

The orbital elements are published on M.P.E.C. 2017-T14.
The magnitudes graphs are made with Comet for Windows.

---------------------------------------------------------------------

Copyright(C) Seiichi Yoshida (comet@aerith.net). All rights reserved.